owner,sensor,date,latitude,longitude,vertical_datum,mass_concentration_of_oxygen_in_sea_water,qcFlag 
TCOON,ioos:station:TCOON:148:1,2017-07-01T00:30:00Z,27.9799,-97.0288,1.0,7.24,1111122 
TCOON,ioos:station:TCOON:148:1,2017-07-01T01:30:00Z,27.9799,-97.0288,1.0,7.06,1111122 
TCOON,ioos:station:TCOON:148:1,2017-07-01T02:30:00Z,27.9799,-97.0288,1.0,6.86,1111122 
TCOON,ioos:station:TCOON:148:1,2017-07-01T03:30:00Z,27.9799,-97.0288,1.0,6.72,1111122 
TCOON,ioos:station:TCOON:148:1,2017-07-01T04:30:00Z,27.9799,-97.0288,1.0,6.7,1111122 
TCOON,ioos:station:TCOON:148:1,2017-07-01T05:30:00Z,27.9799,-97.0288,1.0,6.6,1111122 
TCOON,ioos:station:TCOON:148:1,2017-07-01T06:30:00Z,27.9799,-97.0288,1.0,6.46,1111122 
TCOON,ioos:station:TCOON:148:1,2017-07-01T07:30:00Z,27.9799,-97.0288,1.0,6.47,1111122 
TCOON,ioos:station:TCOON:148:1,2017-07-01T08:30:00Z,27.9799,-97.0288,1.0,6.42,1111122 
TCOON,ioos:station:TCOON:148:1,2017-07-01T09:30:00Z,27.9799,-97.0288,1.0,6.24,1111122 
TCOON,ioos:station:TCOON:148:1,2017-07-01T10:30:00Z,27.9799,-97.0288,1.0,6.24,1111122 
TCOON,ioos:station:TCOON:148:1,2017-07-01T11:30:00Z,27.9799,-97.0288,1.0,6.17,1111122 
TCOON,ioos:station:TCOON:148:1,2017-07-01T12:30:00Z,27.9799,-97.0288,1.0,6.22,1111122 
TCOON,ioos:station:TCOON:148:1,2017-07-01T13:30:00Z,27.9799,-97.0288,1.0,6.15,1111122 
TCOON,ioos:station:TCOON:148:1,2017-07-01T14:30:00Z,27.9799,-97.0288,1.0,6.28,1111122 
TCOON,ioos:station:TCOON:148:1,2017-07-01T15:30:00Z,27.9799,-97.0288,1.0,6.13,1111122 
TCOON,ioos:station:TCOON:148:1,2017-07-01T16:30:00Z,27.9799,-97.0288,1.0,6.12,1111122 
TCOON,ioos:station:TCOON:148:1,2017-07-01T17:30:00Z,27.9799,-97.0288,1.0,6.39,1111122 
TCOON,ioos:station:TCOON:148:1,2017-07-01T18:30:00Z,27.9799,-97.0288,1.0,6.7,1111122 
TCOON,ioos:station:TCOON:148:1,2017-07-01T19:30:00Z,27.9799,-97.0288,1.0,6.81,1111122 
TCOON,ioos:station:TCOON:148:1,2017-07-01T20:30:00Z,27.9799,-97.0288,1.0,6.68,1111122 
TCOON,ioos:station:TCOON:148:1,2017-07-01T21:30:00Z,27.9799,-97.0288,1.0,6.68,1111122 
TCOON,ioos:station:TCOON:148:1,2017-07-01T22:30:00Z,27.9799,-97.0288,1.0,6.29,1111122 
TCOON,ioos:station:TCOON:148:1,2017-07-01T23:30:00Z,27.9799,-97.0288,1.0,7.27,1111122 
TCOON,ioos:station:TCOON:148:1,2017-07-02T00:30:00Z,27.9799,-97.0288,1.0,7.25,1111122 
TCOON,ioos:station:TCOON:148:1,2017-07-02T01:30:00Z,27.9799,-97.0288,1.0,6.91,1111122 
TCOON,ioos:station:TCOON:148:1,2017-07-02T02:30:00Z,27.9799,-97.0288,1.0,6.91,1111122 
TCOON,ioos:station:TCOON:148:1,2017-07-02T03:30:00Z,27.9799,-97.0288,1.0,6.72,1111122 
TCOON,ioos:station:TCOON:148:1,2017-07-02T04:30:00Z,27.9799,-97.0288,1.0,6.69,1111122 
TCOON,ioos:station:TCOON:148:1,2017-07-02T05:30:00Z,27.9799,-97.0288,1.0,6.57,1111122 
TCOON,ioos:station:TCOON:148:1,2017-07-02T06:30:00Z,27.9799,-97.0288,1.0,6.4,1111122 
TCOON,ioos:station:TCOON:148:1,2017-07-02T07:30:00Z,27.9799,-97.0288,1.0,6.43,1111122 
TCOON,ioos:station:TCOON:148:1,2017-07-02T08:30:00Z,27.9799,-97.0288,1.0,6.3,1111122 
TCOON,ioos:station:TCOON:148:1,2017-07-02T09:30:00Z,27.9799,-97.0288,1.0,6.39,1111122 
TCOON,ioos:station:TCOON:148:1,2017-07-02T10:30:00Z,27.9799,-97.0288,1.0,6.2,1111122 
TCOON,ioos:station:TCOON:148:1,2017-07-02T11:30:00Z,27.9799,-97.0288,1.0,6.09,1111122 
TCOON,ioos:station:TCOON:148:1,2017-07-02T12:30:00Z,27.9799,-97.0288,1.0,5.93,1111122 
TCOON,ioos:station:TCOON:148:1,2017-07-02T13:30:00Z,27.9799,-97.0288,1.0,5.82,1111122 
TCOON,ioos:station:TCOON:148:1,2017-07-02T14:30:00Z,27.9799,-97.0288,1.0,6.1,1111122 
TCOON,ioos:station:TCOON:148:1,2017-07-02T15:30:00Z,27.9799,-97.0288,1.0,6.05,1111122 
TCOON,ioos:station:TCOON:148:1,2017-07-02T16:30:00Z,27.9799,-97.0288,1.0,5.32,1111122 
TCOON,ioos:station:TCOON:148:1,2017-07-02T17:30:00Z,27.9799,-97.0288,1.0,6.04,1111122 
TCOON,ioos:station:TCOON:148:1,2017-07-02T18:30:00Z,27.9799,-97.0288,1.0,5.62,1111122 
TCOON,ioos:station:TCOON:148:1,2017-07-02T19:30:00Z,27.9799,-97.0288,1.0,5.86,1111122 
TCOON,ioos:station:TCOON:148:1,2017-07-02T20:30:00Z,27.9799,-97.0288,1.0,5.89,1111122 
TCOON,ioos:station:TCOON:148:1,2017-07-02T21:30:00Z,27.9799,-97.0288,1.0,6.14,1111122 
TCOON,ioos:station:TCOON:148:1,2017-07-02T22:30:00Z,27.9799,-97.0288,1.0,6.81,1111122 
TCOON,ioos:station:TCOON:148:1,2017-07-02T23:30:00Z,27.9799,-97.0288,1.0,6.95,1111122 
TCOON,ioos:station:TCOON:148:1,2017-07-03T00:30:00Z,27.9799,-97.0288,1.0,7.08,1111122 
TCOON,ioos:station:TCOON:148:1,2017-07-03T01:30:00Z,27.9799,-97.0288,1.0,7.09,1111122 
TCOON,ioos:station:TCOON:148:1,2017-07-03T02:30:00Z,27.9799,-97.0288,1.0,6.95,1111122 
TCOON,ioos:station:TCOON:148:1,2017-07-03T03:30:00Z,27.9799,-97.0288,1.0,6.96,1111122 
TCOON,ioos:station:TCOON:148:1,2017-07-03T04:30:00Z,27.9799,-97.0288,1.0,6.78,1111122 
TCOON,ioos:station:TCOON:148:1,2017-07-03T05:30:00Z,27.9799,-97.0288,1.0,6.89,1111122 
TCOON,ioos:station:TCOON:148:1,2017-07-03T06:30:00Z,27.9799,-97.0288,1.0,6.73,1111122 
TCOON,ioos:station:TCOON:148:1,2017-07-03T07:30:00Z,27.9799,-97.0288,1.0,6.65,1111122 
TCOON,ioos:station:TCOON:148:1,2017-07-03T08:30:00Z,27.9799,-97.0288,1.0,6.46,1111122 
TCOON,ioos:station:TCOON:148:1,2017-07-03T09:30:00Z,27.9799,-97.0288,1.0,6.45,1111122 
TCOON,ioos:station:TCOON:148:1,2017-07-03T10:30:00Z,27.9799,-97.0288,1.0,6.31,1111122 
TCOON,ioos:station:TCOON:148:1,2017-07-03T11:30:00Z,27.9799,-97.0288,1.0,6.29,1111122 
TCOON,ioos:station:TCOON:148:1,2017-07-03T12:30:00Z,27.9799,-97.0288,1.0,6.04,1111122 
TCOON,ioos:station:TCOON:148:1,2017-07-03T13:30:00Z,27.9799,-97.0288,1.0,5.74,1111122 
TCOON,ioos:station:TCOON:148:1,2017-07-03T14:30:00Z,27.9799,-97.0288,1.0,5.88,1111122 
TCOON,ioos:station:TCOON:148:1,2017-07-03T15:30:00Z,27.9799,-97.0288,1.0,6.23,1111122 
TCOON,ioos:station:TCOON:148:1,2017-07-03T16:30:00Z,27.9799,-97.0288,1.0,6.23,1111122 
TCOON,ioos:station:TCOON:148:1,2017-07-03T17:30:00Z,27.9799,-97.0288,1.0,5.96,1111122 
TCOON,ioos:station:TCOON:148:1,2017-07-03T18:30:00Z,27.9799,-97.0288,1.0,6.47,1111122 
TCOON,ioos:station:TCOON:148:1,2017-07-03T19:30:00Z,27.9799,-97.0288,1.0,6.65,1111122 
TCOON,ioos:station:TCOON:148:1,2017-07-03T20:30:00Z,27.9799,-97.0288,1.0,6.74,1111122 
TCOON,ioos:station:TCOON:148:1,2017-07-03T21:30:00Z,27.9799,-97.0288,1.0,6.7,1111122 
TCOON,ioos:station:TCOON:148:1,2017-07-03T22:30:00Z,27.9799,-97.0288,1.0,6.58,1111122 
TCOON,ioos:station:TCOON:148:1,2017-07-03T23:30:00Z,27.9799,-97.0288,1.0,6.82,1111122 
TCOON,ioos:station:TCOON:148:1,2017-07-04T00:30:00Z,27.9799,-97.0288,1.0,6.91,1111122 
TCOON,ioos:station:TCOON:148:1,2017-07-04T01:30:00Z,27.9799,-97.0288,1.0,6.8,1111122 
TCOON,ioos:station:TCOON:148:1,2017-07-04T02:30:00Z,27.9799,-97.0288,1.0,6.76,1111122 
TCOON,ioos:station:TCOON:148:1,2017-07-04T03:30:00Z,27.9799,-97.0288,1.0,6.61,1111122 
TCOON,ioos:station:TCOON:148:1,2017-07-04T04:30:00Z,27.9799,-97.0288,1.0,6.6,1111122 
TCOON,ioos:station:TCOON:148:1,2017-07-04T05:30:00Z,27.9799,-97.0288,1.0,6.43,1111122 
TCOON,ioos:station:TCOON:148:1,2017-07-04T06:30:00Z,27.9799,-97.0288,1.0,6.5,1111122 
TCOON,ioos:station:TCOON:148:1,2017-07-04T07:30:00Z,27.9799,-97.0288,1.0,6.45,1111122 
TCOON,ioos:station:TCOON:148:1,2017-07-04T08:30:00Z,27.9799,-97.0288,1.0,6.35,1111122 
TCOON,ioos:station:TCOON:148:1,2017-07-04T09:30:00Z,27.9799,-97.0288,1.0,6.32,1111122 
TCOON,ioos:station:TCOON:148:1,2017-07-04T10:30:00Z,27.9799,-97.0288,1.0,6.31,1111122 
TCOON,ioos:station:TCOON:148:1,2017-07-04T11:30:00Z,27.9799,-97.0288,1.0,6.29,1111122 
TCOON,ioos:station:TCOON:148:1,2017-07-04T12:30:00Z,27.9799,-97.0288,1.0,6.22,1111122 
TCOON,ioos:station:TCOON:148:1,2017-07-04T13:30:00Z,27.9799,-97.0288,1.0,6.17,1111122 
TCOON,ioos:station:TCOON:148:1,2017-07-04T14:30:00Z,27.9799,-97.0288,1.0,6.19,1111122 
TCOON,ioos:station:TCOON:148:1,2017-07-04T15:30:00Z,27.9799,-97.0288,1.0,5.77,1111122 
TCOON,ioos:station:TCOON:148:1,2017-07-04T16:30:00Z,27.9799,-97.0288,1.0,6.05,1111122 
TCOON,ioos:station:TCOON:148:1,2017-07-04T17:30:00Z,27.9799,-97.0288,1.0,6.09,1111122 
TCOON,ioos:station:TCOON:148:1,2017-07-04T18:30:00Z,27.9799,-97.0288,1.0,6.39,1111122 
TCOON,ioos:station:TCOON:148:1,2017-07-04T19:30:00Z,27.9799,-97.0288,1.0,6.58,1111122 
TCOON,ioos:station:TCOON:148:1,2017-07-04T20:30:00Z,27.9799,-97.0288,1.0,6.66,1111122 
TCOON,ioos:station:TCOON:148:1,2017-07-04T21:30:00Z,27.9799,-97.0288,1.0,6.65,1111122 
TCOON,ioos:station:TCOON:148:1,2017-07-04T22:30:00Z,27.9799,-97.0288,1.0,6.77,1111122 
TCOON,ioos:station:TCOON:148:1,2017-07-04T23:30:00Z,27.9799,-97.0288,1.0,6.73,1111122 
TCOON,ioos:station:TCOON:148:1,2017-07-05T00:30:00Z,27.9799,-97.0288,1.0,6.85,1111122 
TCOON,ioos:station:TCOON:148:1,2017-07-05T01:30:00Z,27.9799,-97.0288,1.0,6.86,1111122 
TCOON,ioos:station:TCOON:148:1,2017-07-05T02:30:00Z,27.9799,-97.0288,1.0,6.72,1111122 
TCOON,ioos:station:TCOON:148:1,2017-07-05T03:30:00Z,27.9799,-97.0288,1.0,6.46,1111122 
TCOON,ioos:station:TCOON:148:1,2017-07-05T04:30:00Z,27.9799,-97.0288,1.0,6.54,1111122 
TCOON,ioos:station:TCOON:148:1,2017-07-05T05:30:00Z,27.9799,-97.0288,1.0,6.28,1111122 
TCOON,ioos:station:TCOON:148:1,2017-07-05T06:30:00Z,27.9799,-97.0288,1.0,6.33,1111122 
TCOON,ioos:station:TCOON:148:1,2017-07-05T07:30:00Z,27.9799,-97.0288,1.0,6.34,1111122 
TCOON,ioos:station:TCOON:148:1,2017-07-05T08:30:00Z,27.9799,-97.0288,1.0,6.37,1111122 
TCOON,ioos:station:TCOON:148:1,2017-07-05T09:30:00Z,27.9799,-97.0288,1.0,6.25,1111122 
TCOON,ioos:station:TCOON:148:1,2017-07-05T10:30:00Z,27.9799,-97.0288,1.0,6.27,1111122 
TCOON,ioos:station:TCOON:148:1,2017-07-05T11:30:00Z,27.9799,-97.0288,1.0,6.21,1111122 
TCOON,ioos:station:TCOON:148:1,2017-07-05T12:30:00Z,27.9799,-97.0288,1.0,6.11,1111122 
TCOON,ioos:station:TCOON:148:1,2017-07-05T13:30:00Z,27.9799,-97.0288,1.0,6.14,1111122 
TCOON,ioos:station:TCOON:148:1,2017-07-05T14:30:00Z,27.9799,-97.0288,1.0,6.02,1111122 
TCOON,ioos:station:TCOON:148:1,2017-07-05T15:30:00Z,27.9799,-97.0288,1.0,5.64,1111122 
TCOON,ioos:station:TCOON:148:1,2017-07-05T16:30:00Z,27.9799,-97.0288,1.0,5.94,1111122 
TCOON,ioos:station:TCOON:148:1,2017-07-05T17:30:00Z,27.9799,-97.0288,1.0,5.92,1111122 
TCOON,ioos:station:TCOON:148:1,2017-07-05T18:30:00Z,27.9799,-97.0288,1.0,5.87,1111122 
TCOON,ioos:station:TCOON:148:1,2017-07-05T19:30:00Z,27.9799,-97.0288,1.0,5.84,1111122 
TCOON,ioos:station:TCOON:148:1,2017-07-05T20:30:00Z,27.9799,-97.0288,1.0,6.28,1111122 
TCOON,ioos:station:TCOON:148:1,2017-07-05T21:30:00Z,27.9799,-97.0288,1.0,6.35,1111122 
TCOON,ioos:station:TCOON:148:1,2017-07-05T22:30:00Z,27.9799,-97.0288,1.0,7.02,1111122 
TCOON,ioos:station:TCOON:148:1,2017-07-05T23:30:00Z,27.9799,-97.0288,1.0,6.83,1111122 
TCOON,ioos:station:TCOON:148:1,2017-07-06T00:30:00Z,27.9799,-97.0288,1.0,6.93,1111122 
TCOON,ioos:station:TCOON:148:1,2017-07-06T01:30:00Z,27.9799,-97.0288,1.0,6.92,1111122 
TCOON,ioos:station:TCOON:148:1,2017-07-06T02:30:00Z,27.9799,-97.0288,1.0,6.88,1111122 
TCOON,ioos:station:TCOON:148:1,2017-07-06T03:30:00Z,27.9799,-97.0288,1.0,6.71,1111122 
TCOON,ioos:station:TCOON:148:1,2017-07-06T04:30:00Z,27.9799,-97.0288,1.0,6.41,1111122 
TCOON,ioos:station:TCOON:148:1,2017-07-06T05:30:00Z,27.9799,-97.0288,1.0,6.26,1111122 
TCOON,ioos:station:TCOON:148:1,2017-07-06T06:30:00Z,27.9799,-97.0288,1.0,6.14,1111122 
TCOON,ioos:station:TCOON:148:1,2017-07-06T07:30:00Z,27.9799,-97.0288,1.0,6.27,1111122 
TCOON,ioos:station:TCOON:148:1,2017-07-06T08:30:00Z,27.9799,-97.0288,1.0,6.3,1111122 
TCOON,ioos:station:TCOON:148:1,2017-07-06T09:30:00Z,27.9799,-97.0288,1.0,6.15,1111122 
TCOON,ioos:station:TCOON:148:1,2017-07-06T10:30:00Z,27.9799,-97.0288,1.0,6.19,1111122 
TCOON,ioos:station:TCOON:148:1,2017-07-06T11:30:00Z,27.9799,-97.0288,1.0,6.27,1111122 
TCOON,ioos:station:TCOON:148:1,2017-07-06T12:30:00Z,27.9799,-97.0288,1.0,6.14,1111122 
TCOON,ioos:station:TCOON:148:1,2017-07-06T13:30:00Z,27.9799,-97.0288,1.0,6.15,1111122 
TCOON,ioos:station:TCOON:148:1,2017-07-06T14:30:00Z,27.9799,-97.0288,1.0,6.2,1111122 
TCOON,ioos:station:TCOON:148:1,2017-07-06T15:30:00Z,27.9799,-97.0288,1.0,6.2,1111122 
TCOON,ioos:station:TCOON:148:1,2017-07-06T16:30:00Z,27.9799,-97.0288,1.0,6.07,1111122 
TCOON,ioos:station:TCOON:148:1,2017-07-06T17:30:00Z,27.9799,-97.0288,1.0,6.37,1111122 
TCOON,ioos:station:TCOON:148:1,2017-07-06T18:30:00Z,27.9799,-97.0288,1.0,6.31,1111122 
TCOON,ioos:station:TCOON:148:1,2017-07-06T19:30:00Z,27.9799,-97.0288,1.0,5.71,1111122 
TCOON,ioos:station:TCOON:148:1,2017-07-06T20:30:00Z,27.9799,-97.0288,1.0,6.09,1111122 
TCOON,ioos:station:TCOON:148:1,2017-07-06T21:30:00Z,27.9799,-97.0288,1.0,5.96,1111122 
TCOON,ioos:station:TCOON:148:1,2017-07-06T22:30:00Z,27.9799,-97.0288,1.0,6.14,1111122 
TCOON,ioos:station:TCOON:148:1,2017-07-06T23:30:00Z,27.9799,-97.0288,1.0,6.61,1111122 
TCOON,ioos:station:TCOON:148:1,2017-07-07T00:30:00Z,27.9799,-97.0288,1.0,6.56,1111122 
TCOON,ioos:station:TCOON:148:1,2017-07-07T01:30:00Z,27.9799,-97.0288,1.0,6.59,1111122 
TCOON,ioos:station:TCOON:148:1,2017-07-07T02:30:00Z,27.9799,-97.0288,1.0,6.56,1111122 
TCOON,ioos:station:TCOON:148:1,2017-07-07T03:30:00Z,27.9799,-97.0288,1.0,6.51,1111122 
TCOON,ioos:station:TCOON:148:1,2017-07-07T04:30:00Z,27.9799,-97.0288,1.0,6.4,1111122 
TCOON,ioos:station:TCOON:148:1,2017-07-07T05:30:00Z,27.9799,-97.0288,1.0,6.36,1111122 
TCOON,ioos:station:TCOON:148:1,2017-07-07T06:30:00Z,27.9799,-97.0288,1.0,6.21,1111122 
TCOON,ioos:station:TCOON:148:1,2017-07-07T07:30:00Z,27.9799,-97.0288,1.0,6.14,1111122 
TCOON,ioos:station:TCOON:148:1,2017-07-07T08:30:00Z,27.9799,-97.0288,1.0,6.24,1111122 
TCOON,ioos:station:TCOON:148:1,2017-07-07T09:30:00Z,27.9799,-97.0288,1.0,6.18,1111122 
TCOON,ioos:station:TCOON:148:1,2017-07-07T10:30:00Z,27.9799,-97.0288,1.0,6.25,1111122 
TCOON,ioos:station:TCOON:148:1,2017-07-07T11:30:00Z,27.9799,-97.0288,1.0,6.1,1111122 
TCOON,ioos:station:TCOON:148:1,2017-07-07T12:30:00Z,27.9799,-97.0288,1.0,6.07,1111122 
TCOON,ioos:station:TCOON:148:1,2017-07-07T13:30:00Z,27.9799,-97.0288,1.0,6.05,1111122 
TCOON,ioos:station:TCOON:148:1,2017-07-07T14:30:00Z,27.9799,-97.0288,1.0,5.95,1111122 
TCOON,ioos:station:TCOON:148:1,2017-07-07T15:30:00Z,27.9799,-97.0288,1.0,6.02,1111122 
TCOON,ioos:station:TCOON:148:1,2017-07-07T16:30:00Z,27.9799,-97.0288,1.0,6.28,1111122 
TCOON,ioos:station:TCOON:148:1,2017-07-07T17:30:00Z,27.9799,-97.0288,1.0,6.42,1111122 
TCOON,ioos:station:TCOON:148:1,2017-07-07T18:30:00Z,27.9799,-97.0288,1.0,6.67,1111122 
TCOON,ioos:station:TCOON:148:1,2017-07-07T19:30:00Z,27.9799,-97.0288,1.0,6.8,1111122 
TCOON,ioos:station:TCOON:148:1,2017-07-07T20:30:00Z,27.9799,-97.0288,1.0,6.67,1111122 
TCOON,ioos:station:TCOON:148:1,2017-07-07T21:30:00Z,27.9799,-97.0288,1.0,5.89,1111122 
TCOON,ioos:station:TCOON:148:1,2017-07-07T22:30:00Z,27.9799,-97.0288,1.0,5.69,1111122 
TCOON,ioos:station:TCOON:148:1,2017-07-07T23:30:00Z,27.9799,-97.0288,1.0,5.95,1111122 
TCOON,ioos:station:TCOON:148:1,2017-07-08T00:30:00Z,27.9799,-97.0288,1.0,6.28,1111122 
TCOON,ioos:station:TCOON:148:1,2017-07-08T01:30:00Z,27.9799,-97.0288,1.0,6.03,1111122 
TCOON,ioos:station:TCOON:148:1,2017-07-08T02:30:00Z,27.9799,-97.0288,1.0,6.32,1111122 
TCOON,ioos:station:TCOON:148:1,2017-07-08T03:30:00Z,27.9799,-97.0288,1.0,6.34,1111122 
TCOON,ioos:station:TCOON:148:1,2017-07-08T04:30:00Z,27.9799,-97.0288,1.0,6.1,1111122 
TCOON,ioos:station:TCOON:148:1,2017-07-08T05:30:00Z,27.9799,-97.0288,1.0,6.08,1111122 
TCOON,ioos:station:TCOON:148:1,2017-07-08T06:30:00Z,27.9799,-97.0288,1.0,6.2,1111122 
TCOON,ioos:station:TCOON:148:1,2017-07-08T07:30:00Z,27.9799,-97.0288,1.0,5.75,1111122 
TCOON,ioos:station:TCOON:148:1,2017-07-08T08:30:00Z,27.9799,-97.0288,1.0,6.4,1111122 
TCOON,ioos:station:TCOON:148:1,2017-07-08T09:30:00Z,27.9799,-97.0288,1.0,6.07,1111122 
TCOON,ioos:station:TCOON:148:1,2017-07-08T10:30:00Z,27.9799,-97.0288,1.0,6.1,1111122 
TCOON,ioos:station:TCOON:148:1,2017-07-08T11:30:00Z,27.9799,-97.0288,1.0,6.17,1111122 
TCOON,ioos:station:TCOON:148:1,2017-07-08T12:30:00Z,27.9799,-97.0288,1.0,6.04,1111122 
TCOON,ioos:station:TCOON:148:1,2017-07-08T13:30:00Z,27.9799,-97.0288,1.0,5.86,1111122 
TCOON,ioos:station:TCOON:148:1,2017-07-08T14:30:00Z,27.9799,-97.0288,1.0,5.98,1111122 
TCOON,ioos:station:TCOON:148:1,2017-07-08T15:30:00Z,27.9799,-97.0288,1.0,6.12,1111122 
TCOON,ioos:station:TCOON:148:1,2017-07-08T16:30:00Z,27.9799,-97.0288,1.0,6.1,1111122 
TCOON,ioos:station:TCOON:148:1,2017-07-08T17:30:00Z,27.9799,-97.0288,1.0,6.2,1111122 
TCOON,ioos:station:TCOON:148:1,2017-07-08T18:30:00Z,27.9799,-97.0288,1.0,6.41,1111122 
TCOON,ioos:station:TCOON:148:1,2017-07-08T19:30:00Z,27.9799,-97.0288,1.0,6.89,1111122 
TCOON,ioos:station:TCOON:148:1,2017-07-08T20:30:00Z,27.9799,-97.0288,1.0,6.68,1111122 
TCOON,ioos:station:TCOON:148:1,2017-07-08T21:30:00Z,27.9799,-97.0288,1.0,6.59,1111122 
TCOON,ioos:station:TCOON:148:1,2017-07-08T22:30:00Z,27.9799,-97.0288,1.0,6.6,1111122 
TCOON,ioos:station:TCOON:148:1,2017-07-08T23:30:00Z,27.9799,-97.0288,1.0,6.89,1111122 
TCOON,ioos:station:TCOON:148:1,2017-07-09T00:30:00Z,27.9799,-97.0288,1.0,6.95,1111122 
TCOON,ioos:station:TCOON:148:1,2017-07-09T01:30:00Z,27.9799,-97.0288,1.0,6.84,1111122 
TCOON,ioos:station:TCOON:148:1,2017-07-09T02:30:00Z,27.9799,-97.0288,1.0,6.72,1111122 
TCOON,ioos:station:TCOON:148:1,2017-07-09T03:30:00Z,27.9799,-97.0288,1.0,6.52,1111122 
TCOON,ioos:station:TCOON:148:1,2017-07-09T04:30:00Z,27.9799,-97.0288,1.0,6.51,1111122 
TCOON,ioos:station:TCOON:148:1,2017-07-09T05:30:00Z,27.9799,-97.0288,1.0,6.46,1111122 
TCOON,ioos:station:TCOON:148:1,2017-07-09T06:30:00Z,27.9799,-97.0288,1.0,6.23,1111122 
TCOON,ioos:station:TCOON:148:1,2017-07-09T07:30:00Z,27.9799,-97.0288,1.0,6.12,1111122 
TCOON,ioos:station:TCOON:148:1,2017-07-09T08:30:00Z,27.9799,-97.0288,1.0,5.9,1111122 
TCOON,ioos:station:TCOON:148:1,2017-07-09T09:30:00Z,27.9799,-97.0288,1.0,6.13,1111122 
TCOON,ioos:station:TCOON:148:1,2017-07-09T10:30:00Z,27.9799,-97.0288,1.0,6.13,1111122 
TCOON,ioos:station:TCOON:148:1,2017-07-09T11:30:00Z,27.9799,-97.0288,1.0,6.09,1111122 
TCOON,ioos:station:TCOON:148:1,2017-07-09T12:30:00Z,27.9799,-97.0288,1.0,6.06,1111122 
TCOON,ioos:station:TCOON:148:1,2017-07-09T13:30:00Z,27.9799,-97.0288,1.0,5.96,1111122 
TCOON,ioos:station:TCOON:148:1,2017-07-09T14:30:00Z,27.9799,-97.0288,1.0,5.93,1111122 
TCOON,ioos:station:TCOON:148:1,2017-07-09T15:30:00Z,27.9799,-97.0288,1.0,6.2,1111122 
TCOON,ioos:station:TCOON:148:1,2017-07-09T16:30:00Z,27.9799,-97.0288,1.0,6.3,1111122 
TCOON,ioos:station:TCOON:148:1,2017-07-09T22:30:00Z,27.9799,-97.0288,1.0,6.53,1111122 
TCOON,ioos:station:TCOON:148:1,2017-07-10T00:30:00Z,27.9799,-97.0288,1.0,6.88,1111122 
TCOON,ioos:station:TCOON:148:1,2017-07-10T09:30:00Z,27.9799,-97.0288,1.0,5.81,1111122 
TCOON,ioos:station:TCOON:148:1,2017-07-10T10:30:00Z,27.9799,-97.0288,1.0,6.09,1111122 
TCOON,ioos:station:TCOON:148:1,2017-07-10T11:30:00Z,27.9799,-97.0288,1.0,6.05,1111122 
TCOON,ioos:station:TCOON:148:1,2017-07-10T12:30:00Z,27.9799,-97.0288,1.0,5.92,1111122 
TCOON,ioos:station:TCOON:148:1,2017-07-10T13:30:00Z,27.9799,-97.0288,1.0,6.02,1111122 
TCOON,ioos:station:TCOON:148:1,2017-07-10T14:30:00Z,27.9799,-97.0288,1.0,5.87,1111122 
TCOON,ioos:station:TCOON:148:1,2017-07-10T15:30:00Z,27.9799,-97.0288,1.0,5.9,1111122 
TCOON,ioos:station:TCOON:148:1,2017-07-10T16:30:00Z,27.9799,-97.0288,1.0,6.02,1111122 
TCOON,ioos:station:TCOON:148:1,2017-07-10T17:30:00Z,27.9799,-97.0288,1.0,5.98,1111122 
TCOON,ioos:station:TCOON:148:1,2017-07-10T18:30:00Z,27.9799,-97.0288,1.0,6.05,1111122 
TCOON,ioos:station:TCOON:148:1,2017-07-10T19:30:00Z,27.9799,-97.0288,1.0,5.66,1111122 
TCOON,ioos:station:TCOON:148:1,2017-07-10T20:30:00Z,27.9799,-97.0288,1.0,6.24,1111122 
TCOON,ioos:station:TCOON:148:1,2017-07-10T21:30:00Z,27.9799,-97.0288,1.0,6.64,1111122 
TCOON,ioos:station:TCOON:148:1,2017-07-10T22:30:00Z,27.9799,-97.0288,1.0,6.57,1111122 
TCOON,ioos:station:TCOON:148:1,2017-07-10T23:30:00Z,27.9799,-97.0288,1.0,6.96,1111122 
TCOON,ioos:station:TCOON:148:1,2017-07-11T00:30:00Z,27.9799,-97.0288,1.0,6.79,1111122 
TCOON,ioos:station:TCOON:148:1,2017-07-11T01:30:00Z,27.9799,-97.0288,1.0,6.28,1111122 
TCOON,ioos:station:TCOON:148:1,2017-07-11T02:30:00Z,27.9799,-97.0288,1.0,5.53,1111122 
TCOON,ioos:station:TCOON:148:1,2017-07-11T03:30:00Z,27.9799,-97.0288,1.0,5.58,1111122 
TCOON,ioos:station:TCOON:148:1,2017-07-11T04:30:00Z,27.9799,-97.0288,1.0,5.79,1111122 
TCOON,ioos:station:TCOON:148:1,2017-07-11T05:30:00Z,27.9799,-97.0288,1.0,5.88,1111122 
TCOON,ioos:station:TCOON:148:1,2017-07-11T06:30:00Z,27.9799,-97.0288,1.0,6.12,1111122 
TCOON,ioos:station:TCOON:148:1,2017-07-11T07:30:00Z,27.9799,-97.0288,1.0,6.09,1111122 
TCOON,ioos:station:TCOON:148:1,2017-07-11T08:30:00Z,27.9799,-97.0288,1.0,6.08,1111122 
TCOON,ioos:station:TCOON:148:1,2017-07-11T09:30:00Z,27.9799,-97.0288,1.0,5.81,1111122 
TCOON,ioos:station:TCOON:148:1,2017-07-11T10:30:00Z,27.9799,-97.0288,1.0,5.65,1111122 
TCOON,ioos:station:TCOON:148:1,2017-07-11T11:30:00Z,27.9799,-97.0288,1.0,5.48,1111122 
TCOON,ioos:station:TCOON:148:1,2017-07-11T12:30:00Z,27.9799,-97.0288,1.0,5.52,1111122 
TCOON,ioos:station:TCOON:148:1,2017-07-11T13:30:00Z,27.9799,-97.0288,1.0,4.84,1111122 
TCOON,ioos:station:TCOON:148:1,2017-07-11T14:30:00Z,27.9799,-97.0288,1.0,4.61,1111122 
TCOON,ioos:station:TCOON:148:1,2017-07-11T15:30:00Z,27.9799,-97.0288,1.0,4.96,1111122 
TCOON,ioos:station:TCOON:148:1,2017-07-11T16:30:00Z,27.9799,-97.0288,1.0,5.09,1111122 
TCOON,ioos:station:TCOON:148:1,2017-07-11T17:30:00Z,27.9799,-97.0288,1.0,5.61,1111122 
TCOON,ioos:station:TCOON:148:1,2017-07-11T18:30:00Z,27.9799,-97.0288,1.0,6.01,1111122 
TCOON,ioos:station:TCOON:148:1,2017-07-11T19:30:00Z,27.9799,-97.0288,1.0,6.36,1111122 
TCOON,ioos:station:TCOON:148:1,2017-07-11T20:30:00Z,27.9799,-97.0288,1.0,6.1,1111122 
TCOON,ioos:station:TCOON:148:1,2017-07-11T21:30:00Z,27.9799,-97.0288,1.0,6.3,1111122 
TCOON,ioos:station:TCOON:148:1,2017-07-11T22:30:00Z,27.9799,-97.0288,1.0,6.0,1111122 
TCOON,ioos:station:TCOON:148:1,2017-07-11T23:30:00Z,27.9799,-97.0288,1.0,6.41,1111122 
TCOON,ioos:station:TCOON:148:1,2017-07-12T00:30:00Z,27.9799,-97.0288,1.0,6.53,1111122 
TCOON,ioos:station:TCOON:148:1,2017-07-12T01:30:00Z,27.9799,-97.0288,1.0,6.41,1111122 
TCOON,ioos:station:TCOON:148:1,2017-07-12T02:30:00Z,27.9799,-97.0288,1.0,6.57,1111122 
TCOON,ioos:station:TCOON:148:1,2017-07-12T03:30:00Z,27.9799,-97.0288,1.0,6.25,1111122 
TCOON,ioos:station:TCOON:148:1,2017-07-12T04:30:00Z,27.9799,-97.0288,1.0,6.18,1111122 
TCOON,ioos:station:TCOON:148:1,2017-07-12T05:30:00Z,27.9799,-97.0288,1.0,6.2,1111122 
TCOON,ioos:station:TCOON:148:1,2017-07-12T06:30:00Z,27.9799,-97.0288,1.0,6.13,1111122 
TCOON,ioos:station:TCOON:148:1,2017-07-12T07:30:00Z,27.9799,-97.0288,1.0,6.18,1111122 
TCOON,ioos:station:TCOON:148:1,2017-07-12T08:30:00Z,27.9799,-97.0288,1.0,5.92,1111122 
TCOON,ioos:station:TCOON:148:1,2017-07-12T09:30:00Z,27.9799,-97.0288,1.0,5.84,1111122 
TCOON,ioos:station:TCOON:148:1,2017-07-12T10:30:00Z,27.9799,-97.0288,1.0,5.8,1111122 
TCOON,ioos:station:TCOON:148:1,2017-07-12T11:30:00Z,27.9799,-97.0288,1.0,5.68,1111122 
TCOON,ioos:station:TCOON:148:1,2017-07-12T12:30:00Z,27.9799,-97.0288,1.0,5.61,1111122 
TCOON,ioos:station:TCOON:148:1,2017-07-12T13:30:00Z,27.9799,-97.0288,1.0,5.56,1111122 
TCOON,ioos:station:TCOON:148:1,2017-07-12T14:30:00Z,27.9799,-97.0288,1.0,5.48,1111122 
TCOON,ioos:station:TCOON:148:1,2017-07-12T15:30:00Z,27.9799,-97.0288,1.0,5.37,1111122 
TCOON,ioos:station:TCOON:148:1,2017-07-12T16:30:00Z,27.9799,-97.0288,1.0,5.35,1111122 
TCOON,ioos:station:TCOON:148:1,2017-07-12T17:30:00Z,27.9799,-97.0288,1.0,5.79,1111122 
TCOON,ioos:station:TCOON:148:1,2017-07-12T18:30:00Z,27.9799,-97.0288,1.0,5.89,1111122 
TCOON,ioos:station:TCOON:148:1,2017-07-12T19:30:00Z,27.9799,-97.0288,1.0,6.16,1111122 
TCOON,ioos:station:TCOON:148:1,2017-07-12T20:30:00Z,27.9799,-97.0288,1.0,6.13,1111122 
TCOON,ioos:station:TCOON:148:1,2017-07-12T21:30:00Z,27.9799,-97.0288,1.0,6.19,1111122 
TCOON,ioos:station:TCOON:148:1,2017-07-12T22:30:00Z,27.9799,-97.0288,1.0,5.84,1111122 
TCOON,ioos:station:TCOON:148:1,2017-07-13T00:30:00Z,27.9799,-97.0288,1.0,5.81,1111122 
TCOON,ioos:station:TCOON:148:1,2017-07-13T01:30:00Z,27.9799,-97.0288,1.0,5.8,1111122 